STARLINK-3073 (49135 NORAD) Tracking and Keplerian Element Data

This shows tracking and keplerian element data for the satellite.

Feedback or suggestion? Click here.




ElementValue
Catalog49135
NameSTARLINK-3073
Epoch Orbit367
Epoch Day300.58334491
Epoch Year2021
RAAN4.7373
Inclination70.0005
Eccentricity0.000403
Argument of Perigee295.598
Mean Anonmoly49.683
Mean Motion15.69759493
Decay Rate-0.00026334
L11 49135U 21082F 21300.58334491 -.00026334 00000-0 -21938-3 0 9994
L22 49135 70.0005 4.7373 0004030 295.5980 49.6830 15.69759493 3679

Live tracking and technical data element details for STARLINK-3073 (NORAD 49135). STARLINK-3073 can be tracked NOW for your location showing map with azimuth and elevation plus other details from your city location.

Track the satellite on the map from your city or location and see movement details for azimuth, elevation, latitude, longitude, range, height, and movement on the map or in text.







IsCatalogInMostPopularTable: catalog: 49135, numindb: 3
Update: records affected: 1



GetName: 49135 STARLINK-3073

Hit Count: updated at: Thu, 28 Oct 2021 11:18:53 GMT